Marion, IN (46952)

2:21 PM EST on December 08, 2016 (GMT -0500)
Shady Hills Estates | | Change Station

Elev 853 ft 40.58 °N, 85.67 °W | Updated 8 seconds ago

Overcast
Overcast
22.3 °F
Feels Like 12 °F
N
9.6
Wind Variable Wind from West
Gusts 15.0 mph

Today
High -- | Low -- °F
--% Chance of Precip.
Yesterday
High -- | Low -- °F
Precip. -- in
Pressure 30.28 in
Visibility 10.0 miles
Clouds Overcast 2200 ft
Windchill 12 °F
Dew Point -9 °F
Humidity 24%
Rainfall 0.00 in
Snow Depth Not available.
7:54 AM 5:15 PM
Waxing Gibbous, 66% visible
METAR KMZZ 081855Z AUTO 27024G27KT 10SM OVC022 M05/M09 A3028 RMK AO2 T10521093
Pressure 30.28 in
Visibility 10.0 miles
Clouds Overcast 2200 ft
Windchill 12 °F
Dew Point -9 °F
Humidity 24%
Rainfall 0.00 in
Snow Depth Not available.
7:54 AM 5:15 PM
Waxing Gibbous, 66% visible
METAR KMZZ 081855Z AUTO 27024G27KT 10SM OVC022 M05/M09 A3028 RMK AO2 T10521093

10-Day Weather Forecast

Almanac

Astronomy

Dec. 08, 2016 Rise Set
Actual Time
Civil Twilight
Nautical Twilight
Astronomical Twilight
Moon
Length of Visible Light
Length of Day
Tomorrow will be .
, % of the Moon is Illuminated

Today's Extremes

State Highs State Lows

Community

WunderPhotos

Upload Photos

1,956,277 photos uploaded!

WunderBlog® & News

Nearby

Air Quality

  Air Quality AQ Index Pollutant
Not available.

Snow Depth

Station Depth Elevation

Earthquake Activity

City Distance Mag. Time & Date
Minimum magnitude displayed is 2.5.

Coastal Water Temperatures

Place Temperature

Stations

Nearby Weather Stations

Station Location Temp. Windchill Dew Point Humidity Wind Precip. Elev Updated Type
                   

Watches & Warnings

There are currently no watches in effect.